(489398) = 2006 VE2

Discovered at Catalina on 2006-10-23 by CSS.

Orbit

Orbit type: Mars-crosser

Note: WebGL enabled browser required.

epoch2023-09-13.0
epoch JD2460200.5
perihelion date2021-09-21.71398
perihelion JD2459479.21398
argument of perihelion (°)268.50817
ascending node (°)236.89618
inclination (°)21.23490
eccentricity0.1292571
perihelion distance (AU)1.5541196
Tisserand w.r.t. Jupiter4.0
ΔV w.r.t. Earth (km/sec)10.0
semimajor axis (AU)1.7848203
mean anomaly (°)298.13956
mean daily motion (°/day)0.41334440
aphelion distance (AU)2.016
period (years)2.38
P-vector [x]-0.76632296
P-vector [y]0.63094129
P-vector [z]-0.12108758
Q-vector [x]-0.56630045
Q-vector [y]-0.75238738
Q-vector [z]-0.33647738
absolute magnitude18.39
phase slope0.15
uncertainty0
referenceMPEC 2023-X165
observations used180
oppositions8
arc length (days)6255
first opposition used2006
last opposition used2023
residual rms (arc-secs)0.79
perturbers coarse indicatorM-v
perturbers precise indicator003Ek
first observation date used2006-10-23.0
last observation date used2023-12-08.0
computer nameMPCLINUX
JD of orbit computation2457867.294592
perihelion JD uncertainty (days)1.1162E-04
argument of perihelion uncertainty (°)4.7325E-05
ascending node uncertainty (°)1.5061E-05
inclination uncertainty (°)9.5169E-06
eccentricity uncertainty 1.4234E-07
perihelion distance uncertainty (AU)2.3757E-07
Minimum Orbit Intersection Distances (in AU)
for orbit epoch: 2460200.5, reference: E2023-W85
Mercury1.22456
Venus0.9347
Earth0.68807
Mars0.19509
Jupiter3.14378
Saturn7.36434
Uranus16.9656
Neptune28.0051

Observations

189 total observations over interval: 2006 10 23.31267 – 2023 12 08.494806
These data are available for download (format description).

Date (UT) J2000 RA J2000 Dec Magn Location Ref
2006 10 23.31267 03 04 26.43 +31 21 23.2 19.5 V 703 – Catalina Sky Survey MPS 190652
2006 10 23.32026 03 04 26.07 +31 21 14.2 19.9 V 703 – Catalina Sky Survey MPS 190652
2006 10 23.32781 03 04 25.39 +31 21 05.5 20.1 V 703 – Catalina Sky Survey MPS 190652
2006 10 23.33536 03 04 25.03 +31 20 59.2 20.4 V 703 – Catalina Sky Survey MPS 190652
2006 11 10.29072 02 43 27.07 +24 54 59.4 19.3 R 644 – Palomar Mountain/NEAT MPS 186590
2006 11 10.31134 02 43 25.46 +24 54 28.3 20.0 R 644 – Palomar Mountain/NEAT MPS 186590
2006 11 10.33229 02 43 23.88 +24 53 56.5 19.5 R 644 – Palomar Mountain/NEAT MPS 186590
2006 11 11.21078 02 42 20.55 +24 31 39.4 19.5 R 448 – Desert Moon Observatory, Las Cruces MPS 186590
2006 11 11.23449 02 42 18.76 +24 31 03.1 19.6 R 448 – Desert Moon Observatory, Las Cruces MPS 186590
2006 11 11.25842 02 42 16.92 +24 30 27.0 19.9 R 448 – Desert Moon Observatory, Las Cruces MPS 186590
2006 11 11.27561 02 42 15.45 +24 29 56.3 20.0 R H36 – Sandlot Observatory, Scranton MPS 186590
2006 11 11.28606 02 42 14.74 +24 29 43.4 20.4 R H36 – Sandlot Observatory, Scranton MPS 186591
2006 11 11.29410 02 42 14.13 +24 29 32.4 19.6 R H36 – Sandlot Observatory, Scranton MPS 186591
2006 11 11.29599 02 42 14.07 +24 29 29.4 19.3 V G96 – Mt. Lemmon Survey MPS 186591
2006 11 11.30075 02 42 13.71 +24 29 21.8 19.4 V G96 – Mt. Lemmon Survey MPS 186591
2006 11 11.30550 02 42 13.35 +24 29 14.6 19.3 V G96 – Mt. Lemmon Survey MPS 186591
2006 11 11.31014 02 42 12.99 +24 29 07.3 19.3 V G96 – Mt. Lemmon Survey MPS 186591
2006 11 11.31298 02 42 12.74 +24 29 03.4 19.9 R 854 – Sabino Canyon Observatory, Tucson MPS 186591
2006 11 11.31875 02 42 12.33 +24 28 55.2 19.8 R 854 – Sabino Canyon Observatory, Tucson MPS 186591
2006 11 11.32450 02 42 11.91 +24 28 45.7 19.9 R 854 – Sabino Canyon Observatory, Tucson MPS 186591
2006 11 18.26607 02 34 15.20 +21 27 35.5 19.4 V G96 – Mt. Lemmon Survey MPS 188859
2006 11 18.27346 02 34 14.70 +21 27 23.6 19.4 V G96 – Mt. Lemmon Survey MPS 188859
2006 11 18.28087 02 34 14.19 +21 27 11.8 19.5 V G96 – Mt. Lemmon Survey MPS 188859
2006 11 18.28824 02 34 13.65 +21 27 00.5 19.2 V G96 – Mt. Lemmon Survey MPS 188859
2006 11 18.33939 02 34 10.20 +21 25 38.8 19.5 V G96 – Mt. Lemmon Survey MPS 188859
2006 11 18.34910 02 34 09.55 +21 25 23.3 19.5 V G96 – Mt. Lemmon Survey MPS 188859
2006 11 18.35899 02 34 08.90 +21 25 07.6 19.5 V G96 – Mt. Lemmon Survey MPS 188859
2006 11 18.36875 02 34 08.25 +21 24 51.9 19.5 V G96 – Mt. Lemmon Survey MPS 188859
2006 11 18.75579 02 33 44.44 +21 14 34.6 20.0 R 113 – Volkssternwarte Drebach, Schoenbrunn MPS 188859
2006 11 18.75877 02 33 44.22 +21 14 30.0 20.0 R 113 – Volkssternwarte Drebach, Schoenbrunn MPS 188859
2006 11 18.81637 02 33 40.53 +21 12 59.9 20.0 V 151 – Eschenberg Observatory, Winterthur MPS 188859
2006 11 18.81847 02 33 40.32 +21 12 56.3 20.1 V 151 – Eschenberg Observatory, Winterthur MPS 188859
2006 11 18.82056 02 33 40.13 +21 12 52.7 19.8 V 151 – Eschenberg Observatory, Winterthur MPS 188859
2006 11 18.86543 02 33 37.34 +21 11 40.9   J95 – Great Shefford MPS 188859
2006 11 18.88058 02 33 36.34 +21 11 17.3 19.2 R J95 – Great Shefford MPS 188859
2006 11 18.92337 02 33 33.38 +21 10 11.6 19.9 V 941 – Observatorio Pla D'Arguines MPS 188859
2006 11 18.92493 02 33 33.30 +21 10 09.0 19.9 V 941 – Observatorio Pla D'Arguines MPS 188859
2006 11 18.92728 02 33 33.22 +21 10 05.1 19.8 V 941 – Observatorio Pla D'Arguines MPS 188859
2006 11 18.92962 02 33 33.12 +21 10 01.2 19.8 V 941 – Observatorio Pla D'Arguines MPS 188859
2006 11 19.19168 02 33 16.64 +21 03 08.0 19.6   704 – Lincoln Laboratory ETS, New Mexico MPS 188859
2006 11 19.20394 02 33 15.98 +21 02 49.4 19.6   704 – Lincoln Laboratory ETS, New Mexico MPS 188859
2006 11 19.21621 02 33 15.03 +21 02 29.8 20.2   704 – Lincoln Laboratory ETS, New Mexico MPS 188859
2006 11 19.22849 02 33 14.23 +21 02 09.6 20.0   704 – Lincoln Laboratory ETS, New Mexico MPS 188859
2006 11 19.22890 02 33 14.32 +21 02 08.7 19.4 V G96 – Mt. Lemmon Survey MPS 188859
2006 11 19.23482 02 33 13.93 +21 01 59.4 19.4 V G96 – Mt. Lemmon Survey MPS 188859
2006 11 19.24021 02 33 13.56 +21 01 50.6 19.7 R 448 – Desert Moon Observatory, Las Cruces MPS 188859
2006 11 19.24068 02 33 13.53 +21 01 50.0 19.5 V G96 – Mt. Lemmon Survey MPS 188859
2006 11 19.24075 02 33 13.55 +21 01 50.5 20.1   704 – Lincoln Laboratory ETS, New Mexico MPS 188859
2006 11 19.24669 02 33 13.14 +21 01 40.5 19.4 V G96 – Mt. Lemmon Survey MPS 188859
2006 11 19.25618 02 33 12.46 +21 01 25.5 19.6 R 448 – Desert Moon Observatory, Las Cruces MPS 188859
2006 11 19.27271 02 33 11.36 +21 00 59.4 19.8 R 448 – Desert Moon Observatory, Las Cruces MPS 188859
2012 03 14.25818 07 05 36.622 -16 29 53.55 20.9 g F51 – Pan-STARRS 1, Haleakala MPS 477718
2012 03 14.27120 07 05 37.454 -16 29 42.99 20.8 g F51 – Pan-STARRS 1, Haleakala MPS 477718
2012 03 14.28484 07 05 38.323 -16 29 32.00 20.4 r F51 – Pan-STARRS 1, Haleakala MPS 477718
2012 03 14.29736 07 05 39.133 -16 29 22.27 20.2 r F51 – Pan-STARRS 1, Haleakala MPS 477718
2013 09 26.24089 00 14 46.24 +35 30 57.0 20.9 V G96 – Mt. Lemmon Survey MPS 477718
2013 09 26.24556 00 14 45.90 +35 30 53.9 21.0 V G96 – Mt. Lemmon Survey MPS 477718
2013 09 26.25027 00 14 45.57 +35 30 50.4 20.8 V G96 – Mt. Lemmon Survey MPS 477718
2013 09 26.25494 00 14 45.25 +35 30 47.5 20.9 V G96 – Mt. Lemmon Survey MPS 477718
2013 09 26.312511 00 14 40.87 +35 30 06.3 20.7 V H21 – Astronomical Research Observatory, Westfield MPS 477718
2013 09 26.323084 00 14 40.12 +35 29 58.8 20.9 V H21 – Astronomical Research Observatory, Westfield MPS 477718
2013 09 26.332831 00 14 39.43 +35 29 51.7 20.9 V H21 – Astronomical Research Observatory, Westfield MPS 477719
2013 10 25.27260 23 47 36.569 +26 28 10.42 20.3 i F51 – Pan-STARRS 1, Haleakala MPS 483658
2013 10 25.28495 23 47 36.153 +26 27 53.55 20.3 i F51 – Pan-STARRS 1, Haleakala MPS 483658
2017 01 12.62074 12 44 19.781 -33 30 30.67 20.7 i F51 – Pan-STARRS 1, Haleakala MPS 797905
2017 01 12.63007 12 44 20.844 -33 30 41.17 20.4 i F51 – Pan-STARRS 1, Haleakala MPS 797905
2017 01 12.63941 12 44 21.903 -33 30 51.42 20.3 i F51 – Pan-STARRS 1, Haleakala MPS 797905
2017 03 21.49526 13 57 43.388 -43 13 33.45 19.4 i F51 – Pan-STARRS 1, Haleakala MPS 778844
2017 03 21.50302 13 57 43.207 -43 13 30.56 19.3 i F51 – Pan-STARRS 1, Haleakala MPS 778844
2017 03 21.51075 13 57 43.018 -43 13 27.58 19.4 i F51 – Pan-STARRS 1, Haleakala MPS 778844
2017 03 21.51849 13 57 42.832 -43 13 24.53 19.2 i F51 – Pan-STARRS 1, Haleakala MPS 778844
2017 04 05.42136 13 48 49.526 -40 13 55.14 19.4 i F51 – Pan-STARRS 1, Haleakala MPS 785166
2017 04 05.42912 13 48 49.097 -40 13 46.84 19.1 i F51 – Pan-STARRS 1, Haleakala MPS 785166
2017 04 05.43689 13 48 48.653 -40 13 38.62 19.1 i F51 – Pan-STARRS 1, Haleakala MPS 785166
2017 04 05.44463 13 48 48.222 -40 13 30.51 19.0 i F51 – Pan-STARRS 1, Haleakala MPS 785166
2017 04 16.61155 13 38 45.17 -36 07 53.7 19.4 R Q60 – ISON-SSO Observatory, Siding Spring MPS 791060
2017 04 16.61816 13 38 44.86 -36 07 43.8 19.3 R Q60 – ISON-SSO Observatory, Siding Spring MPS 791060
2017 04 16.62479 13 38 44.41 -36 07 33.9 19.0 R Q60 – ISON-SSO Observatory, Siding Spring MPS 791060
2017 04 22.47244 13 33 34.29 -33 26 42.1 19.7 R Q60 – ISON-SSO Observatory, Siding Spring MPS 792891
2017 04 22.47890 13 33 33.93 -33 26 31.3 19.5 R Q60 – ISON-SSO Observatory, Siding Spring MPS 792891
2017 04 22.48527 13 33 33.58 -33 26 20.4 19.5 R Q60 – ISON-SSO Observatory, Siding Spring MPS 792891
2017 05 19.37490 13 22 14.741 -19 55 32.34 20.1 w F51 – Pan-STARRS 1, Haleakala MPS 797905
2017 05 19.38724 13 22 14.738 -19 55 12.20 20.0 w F51 – Pan-STARRS 1, Haleakala MPS 797905
2017 05 19.39961 13 22 14.744 -19 54 51.90 20.0 w F51 – Pan-STARRS 1, Haleakala MPS 797905
2017 05 21.19362 13 22 26.98 -19 07 04.9 20.6 V 691 – Steward Observatory, Kitt Peak-Spacewatch MPS 799319
2017 05 21.21138 13 22 27.07 -19 06 36.8 20.4 V 691 – Steward Observatory, Kitt Peak-Spacewatch MPS 799319
2017 05 21.23072 13 22 27.16 -19 06 06.6 20.2 V 691 – Steward Observatory, Kitt Peak-Spacewatch MPS 799319
2017 06 17.15471 13 38 16.85 -10 36 28.9 21.5 V G96 – Mt. Lemmon Survey MPS 802436
